GW6747 Weather Reports


time (UTC)temp
C
wind
direction
speed
KPH
gust
KPH
rain 1hr
cm
rain 24hr
cm
rain mn
cm
humidity
%
barometer
mb
20260505040052 15 339 1.6 4.8 0.00 0.00 0.00 71 1010.0
20260505035549 15 315 0.0 3.2 0.00 0.00 0.00 70 1009.8
20260505035045 15 292 3.2 4.8 0.00 0.00 0.00 69 1009.7
20260505034541 15 295 1.6 3.2 0.00 0.00 0.00 69 1009.6
20260505034039 16 302 3.2 6.4 0.00 0.00 0.00 68 1009.6
20260505033536 16 306 3.2 11.3 0.00 0.00 0.00 68 1009.5
20260505033034 16 265 8.0 9.7 0.00 0.00 0.00 68 1009.5
20260505032531 16 291 8.0 11.3 0.00 0.00 0.00 71 1009.5
20260505032028 15 285 4.8 9.7 0.00 0.00 0.00 73 1009.5
20260505031525 16 279 4.8 14.5 0.00 0.00 0.00 73 1009.4
20260505031021 16 261 0.0 12.9 0.00 0.00 0.00 72 1009.4
20260505030518 16 286 9.7 9.7 0.00 0.00 0.00 73 1009.4
20260505030014 16 256 8.0 9.7 0.00 0.00 0.00 74 1009.3
20260505025510 16 269 6.4 9.7 0.00 0.00 0.00 73 1009.5
20260505025010 16 274 8.0 8.0 0.00 0.00 0.00 73 1009.2
20260505024506 16 285 6.4 12.9 0.00 0.00 0.00 72 1009.1
20260505024003 16 287 8.0 17.7 0.00 0.00 0.00 72 1009.2
20260505023500 16 269 8.0 14.5 0.00 0.00 0.00 72 1009.1
20260505022957 16 275 9.7 16.1 0.00 0.00 0.00 71 1009.1
20260505022455 17 258 12.9 20.9 0.00 0.00 0.00 70 1009.3
20260505021952 17 266 9.7 17.7 0.00 0.00 0.00 70 1009.2
20260505021448 17 263 9.7 12.9 0.00 0.00 0.00 70 1009.3
20260505020944 17 269 6.4 16.1 0.00 0.00 0.00 70 1009.3
20260505020439 17 251 6.4 17.7 0.00 0.00 0.00 70 1009.2
20260505015937 17 283 9.7 11.3 0.00 0.00 0.00 69 1009.3
20260505015434 17 247 8.0 14.5 0.00 0.00 0.00 69 1009.2
20260505014931 18 276 9.7 14.5 0.00 0.00 0.00 68 1009.2
20260505014427 18 279 8.0 14.5 0.00 0.00 0.00 68 1009.4
20260505013924 18 277 6.4 12.9 0.00 0.00 0.00 69 1009.3
20260505013422 18 265 4.8 14.5 0.00 0.00 0.00 69 1009.5
20260505012920 18 254 6.4 14.5 0.00 0.00 0.00 68 1009.3
20260505012417 18 267 9.7 17.7 0.00 0.00 0.00 68 1009.3
20260505011913 19 279 6.4 12.9 0.00 0.00 0.00 66 1009.3
20260505011410 19 279 6.4 11.3 0.00 0.00 0.00 65 1009.4
20260505010906 20 278 6.4 9.7 0.00 0.00 0.00 66 1009.5
20260505010402 19 280 9.7 14.5 0.00 0.00 0.00 66 1009.5
20260505005858 19 247 9.7 14.5 0.00 0.00 0.00 66 1009.4
20260505005355 19 265 6.4 14.5 0.00 0.00 0.00 66 1009.4
20260505004853 19 272 4.8 14.5 0.00 0.00 0.00 67 1009.4
20260505004349 20 285 9.7 14.5 0.00 0.00 0.00 62 1009.3
20260505003846 20 282 6.4 19.3 0.00 0.00 0.00 61 1009.5
20260505003344 20 287 8.0 14.5 0.00 0.00 0.00 61 1009.5
20260505002839 20 268 6.4 9.7 0.00 0.00 0.00 65 1009.3
20260505002337 20 293 6.4 12.9 0.00 0.00 0.00 64 1009.4
20260505001835 20 283 8.0 12.9 0.00 0.00 0.00 64 1009.3
20260505001332 20 278 9.7 17.7 0.00 0.00 0.00 61 1009.4
20260505000829 20 274 6.4 14.5 0.00 0.00 0.00 62 1009.3
20260505000327 20 261 8.0 14.5 0.00 0.00 0.00 62 1009.4
20260504235823 21 277 6.4 9.7 0.00 0.00 0.00 62 1009.3
20260504235320 21 275 6.4 9.7 0.00 0.00 0.00 60 1009.2
20260504234817 21 316 6.4 8.0 0.00 0.00 0.00 61 1009.5
20260504234315 20 268 6.4 9.7 0.00 0.00 0.00 61 1009.5
20260504233811 21 294 6.4 14.5 0.00 0.00 0.00 60 1009.7
20260504233306 21 268 9.7 16.1 0.00 0.00 0.00 57 1009.5
20260504232803 21 261 4.8 11.3 0.00 0.00 0.00 59 1009.5
20260504232301 21 265 6.4 14.5 0.00 0.00 0.00 59 1009.5
20260504231757 21 284 9.7 14.5 0.00 0.00 0.00 54 1009.5
20260504231254 22 338 6.4 14.5 0.00 0.00 0.00 54 1009.4
20260504230750 22 269 9.7 11.3 0.00 0.00 0.00 54 1009.3
20260504230248 22 279 11.3 12.9 0.00 0.00 0.00 53 1009.4
20260504225747 23 309 4.8 12.9 0.00 0.00 0.00 51 1009.5
20260504225242 23 274 6.4 9.7 0.00 0.00 0.00 49 1009.4
20260504224740 23 286 6.4 9.7 0.00 0.00 0.00 49 1009.3
20260504224237 23 294 4.8 8.0 0.00 0.00 0.00 43 1009.6
20260504223733 22 24 6.4 9.7 0.00 0.00 0.00 47 1009.4
20260504223229 22 20 6.4 6.4 0.00 0.00 0.00 47 1009.5
20260504222726 22 34 8.0 9.7 0.00 0.00 0.00 46 1009.5
20260504222223 22 34 6.4 8.0 0.00 0.00 0.00 45 1009.7
20260504221720 22 9 6.4 8.0 0.00 0.00 0.00 45 1009.7
20260504221217 22 15 6.4 8.0 0.00 0.00 0.00 44 1009.9
20260504220714 22 55 8.0 8.0 0.00 0.00 0.00 44 1009.8
20260504220211 22 30 8.0 8.0 0.00 0.00 0.00 49 1009.8
20260504215708 21 25 4.8 8.0 0.00 0.00 0.00 46 1009.8
20260504215205 21 19 6.4 8.0 0.00 0.00 0.00 48 1010.0
20260504214700 21 38 6.4 8.0 0.00 0.00 0.00 50 1010.0
20260504214157 21 46 8.0 9.7 0.00 0.00 0.00 48 1010.1
20260504213654 21 47 8.0 8.0 0.00 0.00 0.00 46 1010.2
20260504213151 22 42 6.4 9.7 0.00 0.00 0.00 54 1010.2
20260504212647 22 43 6.4 9.7 0.00 0.00 0.00 50 1010.1
20260504212144 22 315 3.2 4.8 0.00 0.00 0.00 50 1010.3
20260504211641 22 7 4.8 9.7 0.00 0.00 0.00 47 1010.2
20260504211137 22 328 3.2 8.0 0.00 0.00 0.00 51 1010.2
20260504210636 21 301 3.2 6.4 0.00 0.00 0.00 55 1010.3
20260504210132 21 18 3.2 8.0 0.00 0.00 0.00 59 1010.5
20260504205629 21 32 6.4 8.0 0.00 0.00 0.00 58 1010.4
20260504205126 21 19 6.4 8.0 0.00 0.00 0.00 64 1010.3
20260504204625 21 20 6.4 8.0 0.00 0.00 0.00 57 1010.0
20260504204124 21 19 6.4 9.7 0.00 0.00 0.00 54 1010.2
20260504203622 21 31 9.7 11.3 0.00 0.00 0.00 52 1010.2
20260504203120 21 25 8.0 9.7 0.00 0.00 0.00 59 1010.4
20260504202620 21 31 9.7 9.7 0.00 0.00 0.00 55 1010.4
20260504202117 20 33 8.0 8.0 0.00 0.00 0.00 56 1010.5
20260504201614 20 23 8.0 8.0 0.00 0.00 0.00 61 1010.4
20260504201112 20 18 6.4 6.4 0.00 0.00 0.00 58 1010.4
20260504200608 20 25 6.4 9.7 0.00 0.00 0.00 56 1010.5
20260504200105 20 19 6.4 8.0 0.00 0.00 0.00 60 1010.3
20260504195601 19 38 6.4 9.7 0.00 0.00 0.00 62 1010.5
20260504195057 19 16 6.4 9.7 0.00 0.00 0.00 65 1010.3
20260504194554 18 11 6.4 9.7 0.00 0.00 0.00 66 1010.5
20260504194049 18 37 6.4 9.7 0.00 0.00 0.00 68 1010.6
20260504193546 18 11 6.4 9.7 0.00 0.00 0.00 66 1010.6
20260504193045 18 42 9.7 16.1 0.00 0.00 0.00 67 1010.4
20260504192543 18 12 9.7 12.9 0.00 0.00 0.00 66 1010.6
20260504192041 18 7 6.4 12.9 0.00 0.00 0.00 65 1010.8
20260504191538 18 18 6.4 11.3 0.00 0.00 0.00 65 1010.4
20260504191034 18 26 9.7 14.5 0.00 0.00 0.00 64 1010.6
20260504190531 19 30 8.0 9.7 0.00 0.00 0.00 62 1010.6
20260504190027 19 41 9.7 11.3 0.00 0.00 0.00 61 1010.4
20260504185524 19 36 8.0 11.3 0.00 0.00 0.00 61 1010.6
20260504185020 18 31 8.0 11.3 0.00 0.00 0.00 62 1010.6
20260504184516 18 34 8.0 9.7 0.00 0.00 0.00 63 1010.8
20260504184011 18 29 6.4 9.7 0.00 0.00 0.00 60 1010.7
20260504183509 18 43 9.7 11.3 0.00 0.00 0.00 59 1010.6
20260504183007 18 25 8.0 9.7 0.00 0.00 0.00 60 1010.5
20260504182503 18 36 8.0 9.7 0.00 0.00 0.00 60 1010.5
20260504182001 18 33 9.7 9.7 0.00 0.00 0.00 58 1010.8
20260504181457 18 37 8.0 8.0 0.00 0.00 0.00 63 1010.8
20260504180956 18 24 8.0 9.7 0.00 0.00 0.00 63 1010.8
20260504180455 18 34 6.4 6.4 0.00 0.00 0.00 67 1010.9
20260504175953 17 18 6.4 11.3 0.00 0.00 0.00 66 1010.7
20260504175450 17 2 8.0 9.7 0.00 0.00 0.00 69 1010.7
20260504174947 17 42 8.0 9.7 0.00 0.00 0.00 65 1010.5
20260504174444 18 12 8.0 14.5 0.00 0.00 0.00 64 1010.6
20260504173942 18 37 9.7 9.7 0.00 0.00 0.00 64 1010.5
20260504173438 19 34 6.4 12.9 0.00 0.00 0.00 64 1010.4
20260504172936 18 36 8.0 9.7 0.00 0.00 0.00 62 1010.5
20260504172431 18 48 6.4 9.7 0.00 0.00 0.00 66 1010.6
20260504171928 17 31 6.4 8.0 0.00 0.00 0.00 68 1010.7
20260504171425 17 43 8.0 9.7 0.00 0.00 0.00 69 1010.7
20260504170922 17 35 6.4 8.0 0.00 0.00 0.00 72 1010.6
20260504170418 16 30 6.4 9.7 0.00 0.00 0.00 74 1010.6
20260504160337 15 40 11.3 12.9 0.00 0.00 0.00 78 1010.4
20260504150802 15 15 6.4 8.0 0.00 0.00 0.00 81 1010.2
20260504150259 15 40 8.0 8.0 0.00 0.00 0.00 80 1010.2
20260504141229 14 29 6.4 9.7 0.00 0.00 0.00 82 1009.7
20260504140725 13 38 8.0 9.7 0.00 0.00 0.00 83 1009.6
20260504140220 13 35 8.0 11.3 0.00 0.00 0.00 84 1009.7
20260504130649 11 13 0.0 3.2 0.00 0.00 0.00 88 1009.5
20260504130146 11 21 3.2 3.2 0.00 0.00 0.00 87 1009.4
20260504120110 10 24 1.6 1.6 0.00 0.00 0.00 87 1009.4
20260504110537 11 329 0.0 1.6 0.00 0.00 0.00 88 1009.4
20260504100459 11 19 0.0 1.6 0.00 0.00 0.00 88 1009.3
20260504081857 12 13 0.0 1.6 0.00 0.00 0.00 79 1009.1
20260504081354 12 12 1.6 3.2 0.00 0.00 0.00 78 1009.2
20260504080850 12 5 0.0 1.6 0.00 0.00 0.00 78 1009.1
20260504080348 12 352 0.0 1.6 0.00 0.00 0.00 79 1009.3
20260504070315 13 333 0.0 3.2 0.00 0.00 0.00 74 1009.2
20260504060235 15 343 1.6 3.2 0.00 0.00 0.00 65 1009.2
20260504050703 16 330 0.0 3.2 0.00 0.00 0.00 61 1009.1
20260504050200 16 302 1.6 3.2 0.00 0.00 0.00 60 1009.2
20260504045658 16 300 1.6 3.2 0.00 0.00 0.00 59 1009.2
20260504045157 16 301 0.0 3.2 0.00 0.00 0.00 59 1009.2
20260504044655 16 289 3.2 3.2 0.00 0.00 0.00 60 1009.3
20260504044152 16 293 0.0 4.8 0.00 0.00 0.00 60 1009.2
20260504043649 16 284 1.6 3.2 0.00 0.00 0.00 61 1009.2
20260504043146 16 294 0.0 3.2 0.00 0.00 0.00 63 1009.3
20260504042644 16 293 0.0 3.2 0.00 0.00 0.00 64 1009.2
20260504042140 16 322 0.0 1.6 0.00 0.00 0.00 66 1009.2
20260504041636 16 259 0.0 3.2 0.00 0.00 0.00 67 1009.2
20260504041132 16 297 1.6 3.2 0.00 0.00 0.00 67 1009.2
20260504040630 16 283 1.6 3.2 0.00 0.00 0.00 65 1009.1
20260504040127 16 286 3.2 3.2 0.00 0.00 0.00 66 1009.2